SKW1544 KSAN-KSFO

Flight info

Callsign SKW1544
Flight time 1h 7m
Altitude 30000
Route PADRZ2 IKAYE RIZIN SPLNT STOKD SERFR SERFR4
Aircraft E75L/M-SDE3GILORVW/S

Departure

Time 2026-04-24 03:06
Airport San Diego International Airport (KSAN)

Arrival

Time 2026-04-24 04:13
Airport San Francisco International Airport (KSFO)
Time Latitude Longitude Altitude Speed Heading
2026-04-24 02:34 32.73337 -117.20344 19 ft 0 kts 266°
2026-04-24 02:48 32.73338 -117.20320 19 ft 4 kts 273°
2026-04-24 02:48 32.73334 -117.20289 19 ft 4 kts 290°
2026-04-24 02:48 32.73319 -117.20264 21 ft 4 kts 329°
2026-04-24 02:48 32.73312 -117.20260 19 ft 2 kts 342°
2026-04-24 02:52 32.73325 -117.20265 23 ft 4 kts 342°
2026-04-24 02:52 32.73366 -117.20275 19 ft 8 kts 358°
2026-04-24 02:53 32.73426 -117.20259 18 ft 9 kts 14°
2026-04-24 02:53 32.73499 -117.20243 19 ft 12 kts 15°
2026-04-24 02:53 32.73545 -117.20202 20 ft 5 kts 81°
2026-04-24 02:53 32.73541 -117.20151 20 ft 9 kts 109°
2026-04-24 02:54 32.73517 -117.20052 22 ft 15 kts 105°
2026-04-24 02:54 32.73487 -117.19921 22 ft 17 kts 105°
2026-04-24 02:54 32.73452 -117.19774 22 ft 20 kts 106°
2026-04-24 02:54 32.73409 -117.19604 22 ft 22 kts 107°
2026-04-24 02:55 32.73364 -117.19420 21 ft 24 kts 106°
2026-04-24 02:55 32.73315 -117.19218 18 ft 27 kts 107°
2026-04-24 02:55 32.73263 -117.19006 20 ft 27 kts 107°
2026-04-24 02:55 32.73212 -117.18788 26 ft 28 kts 105°
2026-04-24 02:56 32.73158 -117.18562 21 ft 30 kts 106°
2026-04-24 02:56 32.73118 -117.18400 18 ft 19 kts 106°
2026-04-24 02:56 32.73077 -117.18240 23 ft 21 kts 108°
2026-04-24 02:56 32.73034 -117.18065 21 ft 22 kts 106°
2026-04-24 02:57 32.72991 -117.17884 20 ft 20 kts 105°
2026-04-24 02:57 32.72968 -117.17786 19 ft 0 kts 107°
2026-04-24 02:57 32.72967 -117.17783 20 ft 0 kts 107°
2026-04-24 03:01 32.72967 -117.17780 17 ft 2 kts 107°
2026-04-24 03:01 32.72955 -117.17734 19 ft 9 kts 107°
2026-04-24 03:01 32.72952 -117.17673 20 ft 0 kts 75°
2026-04-24 03:05 32.72952 -117.17672 20 ft 1 kts 75°
2026-04-24 03:05 32.72968 -117.17615 22 ft 13 kts 65°
2026-04-24 03:05 32.73016 -117.17603 23 ft 9 kts 317°
2026-04-24 03:05 32.73068 -117.17780 21 ft 55 kts 287°
2026-04-24 03:06 32.73250 -117.18530 25 ft 131 kts 287°
2026-04-24 03:06 32.73551 -117.19725 544 ft 155 kts 288°
2026-04-24 03:06 32.73900 -117.20979 1396 ft 164 kts 289°
2026-04-24 03:06 32.74364 -117.22306 1910 ft 186 kts 297°
2026-04-24 03:07 32.75008 -117.23738 2539 ft 205 kts 299°
2026-04-24 03:07 32.75786 -117.25230 3273 ft 219 kts 305°
2026-04-24 03:07 32.76771 -117.26749 3771 ft 246 kts 308°
2026-04-24 03:07 32.77869 -117.28443 4311 ft 267 kts 306°
2026-04-24 03:08 32.78954 -117.30261 5235 ft 271 kts 304°
2026-04-24 03:08 32.81114 -117.33887 7233 ft 270 kts 307°
2026-04-24 03:08 32.82278 -117.35638 8160 ft 271 kts 307°
2026-04-24 03:09 32.83453 -117.37410 8986 ft 273 kts 306°
2026-04-24 03:09 32.84622 -117.39204 9759 ft 276 kts 305°
2026-04-24 03:09 32.85807 -117.41037 10262 ft 287 kts 305°
2026-04-24 03:09 32.87053 -117.42975 10557 ft 303 kts 305°
2026-04-24 03:10 32.88348 -117.44984 11142 ft 307 kts 305°
2026-04-24 03:10 32.89654 -117.47002 11873 ft 308 kts 305°
2026-04-24 03:10 32.90945 -117.49007 12593 ft 310 kts 305°
2026-04-24 03:10 32.92260 -117.51053 13364 ft 313 kts 305°
2026-04-24 03:11 32.93587 -117.53119 14102 ft 315 kts 305°
2026-04-24 03:11 32.94922 -117.55199 14829 ft 317 kts 304°
2026-04-24 03:11 32.96268 -117.57298 15564 ft 320 kts 304°
2026-04-24 03:11 32.97622 -117.59408 16266 ft 322 kts 304°
2026-04-24 03:12 32.98990 -117.61542 16954 ft 325 kts 304°
2026-04-24 03:12 33.00365 -117.63687 17648 ft 327 kts 304°
2026-04-24 03:12 33.01747 -117.65843 18381 ft 329 kts 304°
2026-04-24 03:12 33.03139 -117.68019 18994 ft 331 kts 303°
2026-04-24 03:13 33.04536 -117.70204 19628 ft 333 kts 303°
2026-04-24 03:13 33.05959 -117.72400 20283 ft 337 kts 307°
2026-04-24 03:13 33.07679 -117.74343 20908 ft 344 kts 314°
2026-04-24 03:13 33.09498 -117.76220 21558 ft 347 kts 314°
2026-04-24 03:14 33.11315 -117.78073 22162 ft 349 kts 314°
2026-04-24 03:14 33.13168 -117.79958 22767 ft 352 kts 314°
2026-04-24 03:14 33.15041 -117.81861 23335 ft 355 kts 314°
2026-04-24 03:14 33.16933 -117.83783 23858 ft 358 kts 314°
2026-04-24 03:15 33.18831 -117.85714 24338 ft 360 kts 314°
2026-04-24 03:15 33.20719 -117.87692 24810 ft 362 kts 311°
2026-04-24 03:15 33.22495 -117.89821 25300 ft 363 kts 309°
2026-04-24 03:15 33.24253 -117.91996 25794 ft 365 kts 309°
2026-04-24 03:16 33.26032 -117.94169 26285 ft 367 kts 310°
2026-04-24 03:16 33.27836 -117.96340 26769 ft 369 kts 310°
2026-04-24 03:16 33.29657 -117.98520 27231 ft 372 kts 310°
2026-04-24 03:16 33.31494 -118.00713 27670 ft 374 kts 310°
2026-04-24 03:17 33.33317 -118.02892 28091 ft 377 kts 310°
2026-04-24 03:17 33.35179 -118.05118 28602 ft 380 kts 310°
2026-04-24 03:17 33.37055 -118.07362 29107 ft 382 kts 310°
2026-04-24 03:17 33.38941 -118.09619 29598 ft 385 kts 310°
2026-04-24 03:18 33.40843 -118.11897 30098 ft 387 kts 310°
2026-04-24 03:18 33.42766 -118.14205 30120 ft 398 kts 310°
2026-04-24 03:18 33.44744 -118.16582 30129 ft 408 kts 310°
2026-04-24 03:18 33.46773 -118.19021 30005 ft 420 kts 310°
2026-04-24 03:19 33.48856 -118.21523 30016 ft 427 kts 310°
2026-04-24 03:19 33.53051 -118.26560 30002 ft 431 kts 310°
2026-04-24 03:20 33.57276 -118.31645 29982 ft 430 kts 310°
2026-04-24 03:20 33.61491 -118.36730 29998 ft 430 kts 310°
2026-04-24 03:21 33.65708 -118.41825 30004 ft 430 kts 310°
2026-04-24 03:21 33.69920 -118.46921 29998 ft 430 kts 310°
2026-04-24 03:22 33.74136 -118.52030 30002 ft 430 kts 310°
2026-04-24 03:22 33.78308 -118.57092 29984 ft 430 kts 310°
2026-04-24 03:23 33.82515 -118.62204 29983 ft 430 kts 310°
2026-04-24 03:23 33.86717 -118.67320 29983 ft 430 kts 310°
2026-04-24 03:24 33.90920 -118.72443 29987 ft 430 kts 310°
2026-04-24 03:24 33.95095 -118.77541 29986 ft 430 kts 310°
2026-04-24 03:25 33.99296 -118.82678 29988 ft 430 kts 310°
2026-04-24 03:25 34.03493 -118.87817 29981 ft 430 kts 310°
2026-04-24 03:26 34.07692 -118.92968 29998 ft 430 kts 310°
2026-04-24 03:26 34.11862 -118.98102 30013 ft 432 kts 310°
2026-04-24 03:27 34.15626 -119.03655 30030 ft 426 kts 299°
2026-04-24 03:27 34.18788 -119.09709 29963 ft 426 kts 298°
2026-04-24 03:28 34.21919 -119.15790 29967 ft 426 kts 298°
2026-04-24 03:28 34.25038 -119.21875 29986 ft 426 kts 299°
2026-04-24 03:29 34.28142 -119.27938 29974 ft 427 kts 298°
2026-04-24 03:29 34.31260 -119.34043 29972 ft 427 kts 298°
2026-04-24 03:30 34.34361 -119.40176 29976 ft 427 kts 298°
2026-04-24 03:30 34.37494 -119.46289 29984 ft 427 kts 298°
2026-04-24 03:31 34.40643 -119.52387 29984 ft 430 kts 303°
2026-04-24 03:31 34.44725 -119.57761 29965 ft 434 kts 310°
2026-04-24 03:32 34.48924 -119.62934 29991 ft 434 kts 310°
2026-04-24 03:32 34.53166 -119.68135 29996 ft 434 kts 310°
2026-04-24 03:33 34.57405 -119.73347 29992 ft 434 kts 311°
2026-04-24 03:33 34.61640 -119.78563 29998 ft 434 kts 310°
2026-04-24 03:34 34.65849 -119.83757 29993 ft 434 kts 310°
2026-04-24 03:34 34.70079 -119.88990 29995 ft 434 kts 310°
2026-04-24 03:35 34.74309 -119.94245 29992 ft 434 kts 311°
2026-04-24 03:35 34.78554 -119.99483 29995 ft 434 kts 310°
2026-04-24 03:36 34.82790 -120.04734 30021 ft 436 kts 310°
2026-04-24 03:36 34.87036 -120.10007 30013 ft 436 kts 310°
2026-04-24 03:37 34.91246 -120.15250 30020 ft 438 kts 310°
2026-04-24 03:37 34.95493 -120.20546 30028 ft 437 kts 310°
2026-04-24 03:38 34.99738 -120.25849 30027 ft 437 kts 310°
2026-04-24 03:38 35.03982 -120.31148 30036 ft 436 kts 310°
2026-04-24 03:39 35.08217 -120.36457 30020 ft 437 kts 310°
2026-04-24 03:39 35.12585 -120.41574 30040 ft 441 kts 314°
2026-04-24 03:40 35.17147 -120.46574 30027 ft 441 kts 314°
2026-04-24 03:40 35.21661 -120.51623 30029 ft 439 kts 313°
2026-04-24 03:41 35.26171 -120.56691 30047 ft 440 kts 313°
2026-04-24 03:41 35.30637 -120.61733 30040 ft 440 kts 313°
2026-04-24 03:42 35.35129 -120.66824 30040 ft 440 kts 313°
2026-04-24 03:42 35.39621 -120.71901 30035 ft 440 kts 313°
2026-04-24 03:43 35.44119 -120.76991 30051 ft 439 kts 313°
2026-04-24 03:43 35.48648 -120.82028 30065 ft 442 kts 317°
2026-04-24 03:44 35.53547 -120.86614 30060 ft 443 kts 319°
2026-04-24 03:44 35.58438 -120.91133 30041 ft 441 kts 319°
2026-04-24 03:44 35.60876 -120.93389 30044 ft 430 kts 319°
2026-04-24 03:45 35.63203 -120.95535 30020 ft 406 kts 319°
2026-04-24 03:45 35.65403 -120.97573 30039 ft 388 kts 319°
2026-04-24 03:45 35.67551 -120.99575 30054 ft 388 kts 318°
2026-04-24 03:46 35.71871 -121.03609 30061 ft 391 kts 319°
2026-04-24 03:46 35.76196 -121.07640 30101 ft 388 kts 319°
2026-04-24 03:47 35.80489 -121.11650 30067 ft 397 kts 319°
2026-04-24 03:47 35.82725 -121.13745 30111 ft 410 kts 319°
2026-04-24 03:47 35.85036 -121.15912 30062 ft 425 kts 319°
2026-04-24 03:47 35.87427 -121.18152 30064 ft 438 kts 319°
2026-04-24 03:48 35.89887 -121.20457 30067 ft 450 kts 319°
2026-04-24 03:48 35.92412 -121.22821 30066 ft 461 kts 319°
2026-04-24 03:48 35.94927 -121.25172 30000 ft 441 kts 319°
2026-04-24 03:48 35.97307 -121.27395 29937 ft 416 kts 319°
2026-04-24 03:49 35.99549 -121.29494 29996 ft 391 kts 319°
2026-04-24 03:49 36.01649 -121.31465 30057 ft 374 kts 319°
2026-04-24 03:49 36.03721 -121.33422 30115 ft 379 kts 318°
2026-04-24 03:50 36.07964 -121.37403 29771 ft 388 kts 321°
2026-04-24 03:50 36.10238 -121.39203 29513 ft 388 kts 324°
2026-04-24 03:50 36.12552 -121.40930 29234 ft 389 kts 324°
2026-04-24 03:50 36.14859 -121.42687 28978 ft 391 kts 323°
2026-04-24 03:51 36.17161 -121.44494 28664 ft 391 kts 323°
2026-04-24 03:51 36.19567 -121.46000 28396 ft 384 kts 334°
2026-04-24 03:51 36.21948 -121.47305 28161 ft 365 kts 325°
2026-04-24 03:51 36.24022 -121.49000 27880 ft 350 kts 320°
2026-04-24 03:52 36.25940 -121.50771 27629 ft 339 kts 317°
2026-04-24 03:52 36.27763 -121.52528 27360 ft 337 kts 319°
2026-04-24 03:52 36.29713 -121.54266 27166 ft 356 kts 321°
2026-04-24 03:52 36.31823 -121.56004 26892 ft 370 kts 323°
2026-04-24 03:53 36.34009 -121.57735 26619 ft 374 kts 323°
2026-04-24 03:53 36.36219 -121.59466 26374 ft 376 kts 323°
2026-04-24 03:53 36.38419 -121.61194 26132 ft 375 kts 323°
2026-04-24 03:53 36.40616 -121.62931 26015 ft 371 kts 323°
2026-04-24 03:54 36.42794 -121.64655 25941 ft 376 kts 323°
2026-04-24 03:54 36.45016 -121.66406 25328 ft 376 kts 324°
2026-04-24 03:54 36.47211 -121.68118 24798 ft 370 kts 324°
2026-04-24 03:54 36.49369 -121.69802 24287 ft 364 kts 324°
2026-04-24 03:55 36.51470 -121.71449 23819 ft 359 kts 324°
2026-04-24 03:55 36.53561 -121.73100 23301 ft 353 kts 324°
2026-04-24 03:55 36.55607 -121.74717 22882 ft 344 kts 324°
2026-04-24 03:55 36.57609 -121.76304 22417 ft 338 kts 324°
2026-04-24 03:56 36.59580 -121.77865 21978 ft 333 kts 324°
2026-04-24 03:56 36.61523 -121.79406 21520 ft 329 kts 324°
2026-04-24 03:56 36.63436 -121.80924 21098 ft 324 kts 324°
2026-04-24 03:56 36.65333 -121.82419 20660 ft 322 kts 325°
2026-04-24 03:57 36.67222 -121.83904 20236 ft 320 kts 325°
2026-04-24 03:57 36.69101 -121.85402 19814 ft 321 kts 325°
2026-04-24 03:57 36.70960 -121.86886 19389 ft 322 kts 325°
2026-04-24 03:57 36.72844 -121.88387 18986 ft 321 kts 326°
2026-04-24 03:58 36.74877 -121.89560 18553 ft 324 kts 342°
2026-04-24 03:58 36.77053 -121.90262 18097 ft 323 kts 346°
2026-04-24 03:58 36.79239 -121.90860 17678 ft 320 kts 347°
2026-04-24 03:58 36.81403 -121.91444 17247 ft 317 kts 347°
2026-04-24 03:59 36.83552 -121.92033 16833 ft 314 kts 346°
2026-04-24 03:59 36.85677 -121.92623 16398 ft 312 kts 347°
2026-04-24 03:59 36.87762 -121.93207 15992 ft 310 kts 347°
2026-04-24 03:59 36.89855 -121.93794 15584 ft 307 kts 347°
2026-04-24 04:00 36.91934 -121.94379 15166 ft 305 kts 347°
2026-04-24 04:00 36.93997 -121.94960 14769 ft 303 kts 347°
2026-04-24 04:00 36.96046 -121.95557 14374 ft 301 kts 346°
2026-04-24 04:00 36.98045 -121.96317 13967 ft 299 kts 342°
2026-04-24 04:01 37.00014 -121.97139 13544 ft 297 kts 342°
2026-04-24 04:01 37.01960 -121.97933 13179 ft 293 kts 343°
2026-04-24 04:01 37.03898 -121.98704 12785 ft 291 kts 343°
2026-04-24 04:01 37.05802 -121.99451 12402 ft 290 kts 343°
2026-04-24 04:02 37.07725 -122.00203 12022 ft 289 kts 343°
2026-04-24 04:02 37.09638 -122.00950 11629 ft 288 kts 343°
2026-04-24 04:02 37.11547 -122.01695 11254 ft 286 kts 343°
2026-04-24 04:02 37.13443 -122.02435 10879 ft 285 kts 343°
2026-04-24 04:03 37.15326 -122.03173 10499 ft 283 kts 344°
2026-04-24 04:03 37.17202 -122.03907 10128 ft 282 kts 343°
2026-04-24 04:03 37.19065 -122.04635 9740 ft 280 kts 344°
2026-04-24 04:03 37.20894 -122.05350 9375 ft 277 kts 344°
2026-04-24 04:04 37.22724 -122.06067 9027 ft 275 kts 343°
2026-04-24 04:04 37.24552 -122.06783 8637 ft 274 kts 344°
2026-04-24 04:04 37.26361 -122.07486 8298 ft 271 kts 342°
2026-04-24 04:04 37.28153 -122.08186 7945 ft 268 kts 342°
2026-04-24 04:05 37.29927 -122.08889 7570 ft 267 kts 342°
2026-04-24 04:05 37.31696 -122.09589 7224 ft 265 kts 342°
2026-04-24 04:05 37.33452 -122.10284 6877 ft 264 kts 342°
2026-04-24 04:05 37.35199 -122.10974 6517 ft 263 kts 342°
2026-04-24 04:06 37.36920 -122.11644 6160 ft 261 kts 342°
2026-04-24 04:06 37.38642 -122.12315 5831 ft 256 kts 343°
2026-04-24 04:06 37.40325 -122.12903 5465 ft 244 kts 344°
2026-04-24 04:06 37.41945 -122.13441 5214 ft 240 kts 344°
2026-04-24 04:07 37.43557 -122.13979 4885 ft 241 kts 344°
2026-04-24 04:07 37.45180 -122.14527 4577 ft 241 kts 344°
2026-04-24 04:07 37.46794 -122.15081 4244 ft 240 kts 344°
2026-04-24 04:07 37.48371 -122.15625 3897 ft 227 kts 343°
2026-04-24 04:08 37.49834 -122.16128 3666 ft 210 kts 343°
2026-04-24 04:08 37.51209 -122.16597 3391 ft 201 kts 344°
2026-04-24 04:08 37.52511 -122.17092 3179 ft 190 kts 334°
2026-04-24 04:08 37.53520 -122.18019 2983 ft 173 kts 309°
2026-04-24 04:09 37.54150 -122.19238 2775 ft 161 kts 299°
2026-04-24 04:09 37.54680 -122.20421 2568 ft 148 kts 297°
2026-04-24 04:09 37.55155 -122.21543 2447 ft 145 kts 296°
2026-04-24 04:09 37.55623 -122.22692 2325 ft 149 kts 295°
2026-04-24 04:10 37.56103 -122.23850 2112 ft 148 kts 296°
2026-04-24 04:10 37.56581 -122.24980 1914 ft 143 kts 296°
2026-04-24 04:10 37.57057 -122.26064 1772 ft 141 kts 297°
2026-04-24 04:11 37.57974 -122.28277 1762 ft 148 kts 293°
2026-04-24 04:11 37.58427 -122.29419 1388 ft 147 kts 295°
2026-04-24 04:11 37.58884 -122.30547 1098 ft 141 kts 295°
2026-04-24 04:11 37.59361 -122.31627 794 ft 140 kts 299°
2026-04-24 04:12 37.59846 -122.32655 582 ft 133 kts 296°
2026-04-24 04:12 37.60256 -122.33683 511 ft 133 kts 294°
2026-04-24 04:12 37.60695 -122.34710 312 ft 131 kts 295°
2026-04-24 04:12 37.61105 -122.35673 126 ft 121 kts 295°
2026-04-24 04:13 37.61487 -122.36568 21 ft 105 kts 292°
2026-04-24 04:13 37.61766 -122.37268 18 ft 72 kts 297°
2026-04-24 04:13 37.61951 -122.37699 19 ft 35 kts 297°
2026-04-24 04:13 37.61980 -122.37904 20 ft 20 kts 232°
2026-04-24 04:14 37.61943 -122.37963 19 ft 0 kts 227°
2026-04-24 04:14 37.61941 -122.37965 18 ft 0 kts 226°
2026-04-24 04:14 37.61934 -122.37976 20 ft 4 kts 228°
2026-04-24 04:14 37.61907 -122.38019 20 ft 9 kts 233°
2026-04-24 04:15 37.61885 -122.38064 18 ft 3 kts 261°
2026-04-24 04:15 37.61888 -122.38087 18 ft 3 kts 280°
2026-04-24 04:15 37.61881 -122.38106 20 ft 3 kts 223°
2026-04-24 04:15 37.61872 -122.38112 19 ft 2 kts 199°
2026-04-24 04:16 37.61852 -122.38121 18 ft 0 kts 202°
2026-04-24 04:16 37.61846 -122.38125 18 ft 0 kts 201°